Location: Borojevi?i
(45.0486°N, 16.2297°E)
Time: 08:08:27
(UTC+00:00)

Cosmos 1470 Rocket - Pass Details

Date: 08 August 2020
Orbit: 604 x 633 km, 82.5° (Epoch: 26 September)

Event Time Altitude Azimuth Distance (km) Brightness Sun altitude
Exits shadow 19:42:19 24° 127° (SE) 1,312 4.6 -14.3°
Maximum altitude 19:43:57 30° 90° (E) 1,112 4.5 -14.6°
Drops below altitude 10° 19:47:49 10° 29° (NNE) 1,995 6.3 -15.1°
Sets 19:50:14 0° 19° (NNE) 2,900 7.3 -15.4°
